Ellensburg, WA
on Friday, February 8, 2013

Friday
Previous Day Next Day
Daily Summary
 ActualAverage (KYKM)Record (KYKM)
Temperature
Mean Temperature °F 35°F  
Max Temperature 48°F 44°F 58°F (1995)
Min Temperature 28°F 25°F 0°F (1949)
Degree Days
Heating Degree Days 27 30  
Month to date heating degree days 245  
Since 1 July heating degree days 3963  
Cooling Degree Days 0 0  
Month to date cooling degree days 0  
Year to date cooling degree days 0  
Moisture
Dew Point 23°F   
Average Humidity 57    
Maximum Humidity 69    
Minimum Humidity 41    
Precipitation
Precipitation 0.00 in 0.03 in 0.57 in (2014)
Month to date precipitation 0.23  
Year to date precipitation 1.37  
Snow
Snow 0.00 in 0.10 in 1.70 in (1985)
Month to date snowfall 0.9  
Year to date snowfall 6.2  
Since 1 July snowfall 19.2  
Snow Depth in   
Wind
Wind Speed 14 mph   
Max Wind Speed 23 mph   
Max Gust Speed 30 mph   
Visibility 10 miles   
Events     

Key: T is trace of precipitation, MM is missing value
Source: NWS Daily Summary
Time(PST)TemperatureDew PointHumidity Pressure Visibility Wind DirectionWind SpeedGust SpeedPrecipitationEvents Conditions
12:53 AM 34.0°F 23.0°F 64% 30.09 in 10.0 miles NW 9.2 mph - N/A   Clear
1:53 AM 34.0°F 23.0°F 64% 30.10 in 10.0 miles NW 16.1 mph - N/A   Clear
2:53 AM 34.0°F 23.0°F 64% 30.12 in 10.0 miles NW 10.4 mph - N/A   Clear
3:53 AM 34.0°F 23.0°F 64% 30.12 in 10.0 miles NW 13.8 mph - N/A   Clear
4:53 AM 30.9°F 21.0°F 67% 30.14 in 10.0 miles NW 8.1 mph - N/A   Clear
5:53 AM 28.9°F 19.9°F 69% 30.15 in 10.0 miles NW 8.1 mph - N/A   Clear
6:53 AM 30.9°F 19.9°F 64% 30.17 in 10.0 miles NNW 5.8 mph - N/A   Clear
7:53 AM 34.0°F 23.0°F 64% 30.19 in 10.0 miles NW 12.7 mph 21.9 mph N/A   Clear
8:53 AM 37.0°F 24.1°F 59% 30.19 in 10.0 miles NW 13.8 mph - N/A   Clear
9:53 AM 39.9°F 24.1°F 53% 30.18 in 10.0 miles NW 16.1 mph 23.0 mph N/A   Clear
10:53 AM 43.0°F 24.1°F 47% 30.18 in 10.0 miles NW 18.4 mph 24.2 mph N/A   Clear
11:53 AM 45.0°F 24.1°F 44% 30.16 in 10.0 miles NW 18.4 mph 24.2 mph N/A   Clear
12:53 PM 46.9°F 24.1°F 41% 30.14 in 10.0 miles NW 18.4 mph - N/A   Clear
1:53 PM 48.0°F 25.0°F 41% 30.13 in 10.0 miles NW 18.4 mph 25.3 mph N/A   Clear
2:53 PM 46.9°F 24.1°F 41% 30.13 in 10.0 miles NW 19.6 mph - N/A   Clear
3:53 PM 44.1°F 25.0°F 47% 30.14 in 10.0 miles NW 20.7 mph - N/A   Clear
4:53 PM 39.9°F 24.1°F 53% 30.14 in 10.0 miles NW 21.9 mph 28.8 mph N/A   Clear
5:53 PM 37.9°F 23.0°F 55% 30.15 in 10.0 miles NW 23.0 mph 29.9 mph N/A   Clear
6:53 PM 36.0°F 24.1°F 62% 30.15 in 10.0 miles NW 18.4 mph - N/A   Clear
7:53 PM 37.0°F 24.1°F 59% 30.16 in 10.0 miles NW 16.1 mph - N/A   Clear
8:53 PM 36.0°F 24.1°F 62% 30.15 in 10.0 miles NW 15.0 mph - N/A   Clear
9:53 PM 36.0°F 24.1°F 62% 30.16 in 10.0 miles NW 19.6 mph 25.3 mph N/A   Clear
10:53 PM 36.0°F 24.1°F 62% 30.15 in 10.0 miles NW 15.0 mph - N/A   Clear
11:53 PM 36.0°F 24.1°F 62% 30.14 in 10.0 miles NW 19.6 mph 25.3 mph N/A   Clear
Moon Phase
Feb. 08 Feb. 10 Feb. 17 Feb. 25 Mar. 04
Sunrise:07:17 AM (PST) Moon Rise:05:52 AM (PST)2/8
Sunset:05:16 PM (PST) Moon Set:03:54 PM (PST)2/8

Copyright © 2014 The Weather Underground, Inc.